“In life, you're either a passenger or a pilot. It’s your choice.”

WELCOME TO YOUR AVIATION DREAM!

What's new Up There Icon

WHAT’S NEW HERE?

4000+ aviation terms, acronyms and definitions!
Make your study a little easier with the aviation glossaries that gather over 4000 terms and acronyms extracted from weather, communications, technical and more general topics…
Partnership Icon

PARTNESHIP ANNOUNCEMENT

I am proud to announce a partnership with nizul Logo, study partner of every pilot who wants to consolidate their ground school knowledge and master their written examination.

Try Me Icon

ALL YOURS FOR 30 MINUTES!

Not sure you’d get along with a freelance instructor? How about giving it a try with a 30 minute flight?
My treat! All free.

Resources Tool Box

STUDENT RESOURCES

As a registered student training with me, you get access to a whole lot of files, tools, documents, aviation glossaries, videos, quizzes, sample tests, etc… 

Control Tower Icon

QUESTIONS? CHECK F.A.Q.

In aviation, the only stupid question is the one you didn’t ask. And there is a big chance yours has already been answered in the FAQ. Check it out!

Brain Icon

ARE YOU WIRED FOR FLYING?

Flying an aircraft is usually not the most difficult part of the “problem” and it takes a certain mindset to deal with the other aspects of a flight. Find out wether…

THEY DID IT!

Meet those who refused to be the passengers of their lives, and learn about their experience.

QUICK FACTS

Aviation is a world of serious numbers.
Here are my own, and they count as much as the other ones.

0
YEARS OF
WISDOM
0
YEARS OF
SKY FUN
0
AMAZING
STUDENTS
0
HOURS OF
PURE EXCITEMENT

Grow some wings,
Come fly with me!

Vancouver Island Weather

METARs and TAFs.
VICTORIA INTL (CYYJ)
METAR:

CYYJ 041300Z 28007KT 6SM RA BR FEW004 FEW008 BKN012 OVC020 01/01 A3007 RMK SF1SC2SC5SC1 SF TR SLP184

TAF:

TAF CYYJ 041142Z 0412/0512 27007KT P6SM -RA SCT006 SCT015 OVC050 TEMPO 0412/0419 2SM -RA BR BKN006 OVC040 FM041900 27006KT P6SM SCT020 OVC040 TEMPO 0419/0422 5SM -RA BR OVC020 FM042200 VRB03KT P6SM FEW012 BKN030 FM050200 27008KT P6SM FEW040 RMK NXT FCST BY 041800Z

NANAIMO (CYCD)
METAR:

CYCD 040500Z 00000KT 15SM BKN110 02/M02 A3018 RMK AC7 LAST STFD OBS/NEXT 041400Z SLP223

TAF:

TAF CYCD 031740Z 0318/0405 26004KT P6SM FEW025 BKN180 BKN220 BECMG 0318/0320 34007KT RMK NXT FCST BY 040000Z

LONG BEACH (CYAZ)
METAR:

CYAZ 040100Z 01003KT 15SM SCT150 BKN190 03/02 A3021 RMK AC3AC3 LAST STFD OBS/NXT 041500UTC SLP234

TAF:

TAF CYAZ 031840Z 0319/0401 VRB03KT P6SM FEW030 BKN200 RMK NXT FCST BY 041700Z

For more in-depth weather information, please, check Collaborative Flight Planning Service

For all Runway conditions in CYYJ, please check

IIDS Web View

Windy’s Forecast & Observations